Weather History for Lambertville, MI

Change the Weather History Date:

Saturday, July 20, 2013

  Actual Average (KTOL) Record (KTOL)
Temperature  
Mean Temperature 78 °F 74 °F  
Max Temperature 86 °F 85 °F 102 °F (1930)
Min Temperature 69 °F 63 °F 48 °F (1965)
Degree Days  
Heating Degree Days 0 0  
Month to date heating degree days 0  
Since 1 June heating degree days 35  
Since 1 July heating degree days 0  
Cooling Degree Days 12 9  
Month to date cooling degree days 178  
Year to date cooling degree days 401  
Since 1 June cooling degree days 348  
Growing Degree Days 28 (Base 50)    
Moisture  
Dew Point 67 °F    
Average Humidity 74    
Maximum Humidity 94    
Minimum Humidity 48    
Precipitation  
Precipitation 0.00 in 0.10 in 2.86 in (1989)
Month to date precipitation 2.03  
Year to date precipitation 18.97  
Snow  
Snow 0.00 in 0.00 in - ()
Month to date snowfall 0.0  
Since 1 June snowfall 0.0  
Since 1 July snowfall 0.0  
Snow Depth -    
Sea Level Pressure  
Sea Level Pressure 29.84 in    
Wind  
Wind Speed 6 mph (West)    
Max Wind Speed 16 mph    
Max Gust Speed 26 mph    
Visibility 9 miles    
Events Rain    
T = Trace of Precipitation, MM = Missing Value Source: NWS Daily Summary

Daily Weather History Graph

Daily Weather History Graph

Search for Another Location

Airport:

Trip Planner

Search our weather history database for the weather conditions in past years. The results will help you decide how hot, cold, wet, or windy it might be!

Date:

Astronomy

Jul. 20, 2013 Rise Set
Actual Time 6:17 AM EDT 9:03 PM EDT
Civil Twilight 5:45 AM EDT 9:36 PM EDT
Nautical Twilight 5:03 AM EDT 10:17 PM EDT
Astronomical Twilight 4:16 AM EDT 11:04 PM EDT
Moon 7:06 PM EDT (7/20) 3:56 AM EDT (7/20)
Length of Visible Light 15h 51m
Length of Day
14h 46m
Waxing Gibbous, 93% of the Moon is Illuminated
Jul 20
Waxing Gibbous
Jul 22
Full
Jul 29
Last Quarter
Aug 6
New
Aug 14
First Quarter

Hourly Weather History & Observations

Time (EDT) Temp. Heat Index Dew Point Humidity Pressure Visibility Wind Dir Wind Speed Gust Speed Precip Events Conditions
12:15 AM 82.4 °F 86.3 °F 69.8 °F 66% 29.81 in 10.0 mi SW 10.4 mph 18.4 mph N/A   Mostly Cloudy
12:35 AM 82.4 °F 86.3 °F 69.8 °F 66% 29.80 in 10.0 mi SW 13.8 mph 21.9 mph N/A   Overcast
12:55 AM 82.4 °F 86.3 °F 69.8 °F 66% 29.80 in 10.0 mi SW 11.5 mph 24.2 mph N/A   Scattered Clouds
1:15 AM 82.4 °F 86.3 °F 69.8 °F 66% 29.79 in 10.0 mi SW 11.5 mph 19.6 mph N/A   Mostly Cloudy
1:35 AM 82.4 °F 86.3 °F 69.8 °F 66% 29.79 in 10.0 mi SW 9.2 mph 21.9 mph N/A   Mostly Cloudy
1:55 AM 80.6 °F 83.2 °F 68.0 °F 65% 29.81 in 7.0 mi NNW 16.1 mph 26.5 mph N/A Rain Heavy Rain
2:15 AM 71.6 °F - 66.2 °F 83% 29.83 in 10.0 mi NNW 13.8 mph 21.9 mph N/A   Overcast
2:35 AM 71.6 °F - 66.2 °F 83% 29.82 in 10.0 mi NNW 6.9 mph 20.7 mph N/A Rain Light Rain
2:55 AM 71.6 °F - 66.2 °F 83% 29.81 in 7.0 mi NW 3.5 mph - N/A Rain Rain
3:15 AM 69.8 °F - 66.2 °F 88% 29.84 in 2.0 mi WNW 12.7 mph 20.7 mph N/A Rain Heavy Rain
3:35 AM 69.8 °F - 68.0 °F 94% 29.79 in 7.0 mi West 6.9 mph - N/A Rain Rain
3:55 AM 69.8 °F - 66.2 °F 88% 29.78 in 10.0 mi SSW 8.1 mph - N/A Rain Light Rain
4:15 AM 71.6 °F - 66.2 °F 83% 29.76 in 10.0 mi SW 8.1 mph - N/A Rain Light Rain
4:35 AM 69.8 °F - 68.0 °F 94% 29.77 in 10.0 mi SSW 4.6 mph - N/A   Scattered Clouds
4:55 AM 71.6 °F - 68.0 °F 88% 29.78 in 10.0 mi South 4.6 mph - N/A   Scattered Clouds
5:15 AM 71.6 °F - 68.0 °F 88% 29.77 in 10.0 mi NNW 3.5 mph - N/A Rain Light Rain
5:35 AM 71.6 °F - 68.0 °F 88% 29.76 in 10.0 mi Calm Calm - N/A Rain Light Rain
5:55 AM 71.6 °F - 69.8 °F 94% 29.79 in 10.0 mi WSW 4.6 mph - N/A   Mostly Cloudy
6:15 AM 71.6 °F - 68.0 °F 88% 29.80 in 7.0 mi Calm Calm - N/A   Mostly Cloudy
6:35 AM 71.6 °F - 69.8 °F 94% 29.82 in 7.0 mi SSW 3.5 mph - N/A   Overcast
6:55 AM 71.6 °F - 68.0 °F 88% 29.82 in 7.0 mi SSW 3.5 mph - N/A   Overcast
7:15 AM 71.6 °F - 68.0 °F 88% 29.83 in 7.0 mi Calm Calm - N/A   Overcast
7:35 AM 71.6 °F - 69.8 °F 94% 29.83 in 7.0 mi Calm Calm - N/A   Mostly Cloudy
7:55 AM 71.6 °F - 69.8 °F 94% 29.83 in 7.0 mi Calm Calm - N/A   Overcast
8:15 AM 71.6 °F - 69.8 °F 94% 29.84 in 7.0 mi Calm Calm - N/A   Overcast
8:35 AM 73.4 °F - 69.8 °F 88% 29.84 in 7.0 mi South 3.5 mph - N/A   Overcast
8:55 AM 73.4 °F - 69.8 °F 88% 29.85 in 7.0 mi Calm Calm - N/A   Overcast
9:15 AM 73.4 °F - 69.8 °F 88% 29.85 in 7.0 mi South 3.5 mph - N/A   Overcast
9:35 AM 73.4 °F - 69.8 °F 88% 29.85 in 7.0 mi SSW 3.5 mph - N/A   Overcast
9:55 AM 73.4 °F - 69.8 °F 88% 29.86 in 10.0 mi SSW 3.5 mph - N/A   Overcast
10:15 AM 75.2 °F - 71.6 °F 89% 29.86 in 10.0 mi WSW 3.5 mph - N/A   Overcast
10:35 AM 77.0 °F - 71.6 °F 83% 29.86 in 10.0 mi Calm Calm - N/A   Overcast
10:55 AM 77.0 °F - 71.6 °F 83% 29.85 in 10.0 mi Calm Calm - N/A   Overcast
11:15 AM 78.8 °F - 71.6 °F 78% 29.86 in 10.0 mi SSW 4.6 mph - N/A   Mostly Cloudy
11:35 AM 78.8 °F - 71.6 °F 78% 29.86 in 10.0 mi Calm Calm - N/A   Mostly Cloudy
11:55 AM 78.8 °F - 69.8 °F 74% 29.86 in 10.0 mi Calm Calm - N/A   Scattered Clouds
12:15 PM 80.6 °F 84.6 °F 71.6 °F 74% 29.86 in 10.0 mi Calm Calm - N/A   Mostly Cloudy
12:35 PM 80.6 °F 83.9 °F 69.8 °F 70% 29.86 in 10.0 mi WNW 3.5 mph - N/A   Scattered Clouds
12:55 PM 80.6 °F 83.9 °F 69.8 °F 70% 29.86 in 10.0 mi Calm Calm - N/A   Scattered Clouds
1:15 PM 82.4 °F 87.2 °F 71.6 °F 70% 29.86 in 10.0 mi NNW 5.8 mph - N/A   Mostly Cloudy
1:35 PM 80.6 °F 83.9 °F 69.8 °F 70% 29.86 in 10.0 mi NNW 5.8 mph - N/A   Scattered Clouds
1:55 PM 80.6 °F 83.9 °F 69.8 °F 70% 29.86 in 10.0 mi North 4.6 mph - N/A   Scattered Clouds
2:15 PM 82.4 °F 86.3 °F 69.8 °F 66% 29.86 in 10.0 mi West 3.5 mph - N/A   Scattered Clouds
2:35 PM 82.4 °F 86.3 °F 69.8 °F 66% 29.85 in 10.0 mi WNW 4.6 mph - N/A   Scattered Clouds
2:55 PM 86.0 °F 90.4 °F 69.8 °F 58% 29.85 in 10.0 mi NW 3.5 mph - N/A   Scattered Clouds
3:15 PM 82.4 °F 84.6 °F 66.2 °F 58% 29.84 in 10.0 mi WNW 4.6 mph - N/A   Scattered Clouds
3:35 PM 84.2 °F 87.3 °F 68.0 °F 58% 29.84 in 10.0 mi WNW 5.8 mph - N/A   Scattered Clouds
3:55 PM 84.2 °F 87.3 °F 68.0 °F 58% 29.84 in 10.0 mi North 8.1 mph - N/A   Mostly Cloudy
4:15 PM 84.2 °F 87.3 °F 68.0 °F 58% 29.84 in 10.0 mi NNW 8.1 mph - N/A   Scattered Clouds
4:35 PM 84.2 °F 86.6 °F 66.2 °F 55% 29.85 in 10.0 mi North 8.1 mph - N/A   Scattered Clouds
4:55 PM 82.4 °F 83.9 °F 64.4 °F 54% 29.85 in 10.0 mi NNW 5.8 mph - N/A   Scattered Clouds
5:15 PM 84.2 °F 85.0 °F 62.6 °F 48% 29.85 in 10.0 mi NNW 6.9 mph - N/A   Clear
5:35 PM 84.2 °F 85.0 °F 62.6 °F 48% 29.85 in 10.0 mi NNW 6.9 mph - N/A   Clear
5:55 PM 84.2 °F 85.0 °F 62.6 °F 48% 29.85 in 10.0 mi North 9.2 mph - N/A   Clear
6:15 PM 82.4 °F 82.9 °F 60.8 °F 48% 29.85 in 10.0 mi NNW 3.5 mph - N/A   Clear
6:35 PM 82.4 °F 83.4 °F 62.6 °F 51% 29.85 in 10.0 mi NNW 4.6 mph - N/A   Clear
6:55 PM 80.6 °F 81.8 °F 62.6 °F 54% 29.86 in 10.0 mi NNW 3.5 mph - N/A   Clear
7:15 PM 80.6 °F 82.3 °F 64.4 °F 58% 29.86 in 10.0 mi Calm Calm - N/A   Clear
7:35 PM 80.6 °F 83.2 °F 68.0 °F 65% 29.87 in 10.0 mi Calm Calm - N/A   Clear
7:55 PM 78.8 °F - 68.0 °F 69% 29.87 in 10.0 mi Calm Calm - N/A   Clear
8:15 PM 78.8 °F - 68.0 °F 69% 29.87 in 10.0 mi Calm Calm - N/A   Clear
8:35 PM 78.8 °F - 64.4 °F 61% 29.87 in 10.0 mi Calm Calm - N/A   Clear
8:55 PM 78.8 °F - 62.6 °F 57% 29.88 in 10.0 mi Calm Calm - N/A   Clear
9:15 PM 73.4 °F - 68.0 °F 83% 29.89 in 10.0 mi Calm Calm - N/A   Clear
9:35 PM 73.4 °F - 66.2 °F 78% 29.89 in 7.0 mi Calm Calm - N/A   Clear
9:55 PM 73.4 °F - 62.6 °F 69% 29.91 in 5.0 mi Calm Calm - N/A   Haze
10:15 PM 73.4 °F - 62.6 °F 69% 29.92 in 10.0 mi Calm Calm - N/A   Clear
10:35 PM 71.6 °F - 60.8 °F 69% 29.93 in 10.0 mi Calm Calm - N/A   Clear
10:55 PM 71.6 °F - 60.8 °F 69% 29.93 in 10.0 mi Calm Calm - N/A   Clear
11:15 PM 71.6 °F - 60.8 °F 69% 29.93 in 10.0 mi Calm Calm - N/A   Clear
11:35 PM 69.8 °F - 60.8 °F 73% 29.93 in 10.0 mi Calm Calm - N/A   Clear
11:55 PM 69.8 °F - 62.6 °F 78% 29.93 in 10.0 mi Calm Calm - N/A   Clear